TimeCST,TemperatureF,Dew PointF,Humidity,Sea Level PressureIn,VisibilityMPH,Wind Direction,Wind SpeedMPH,Gust SpeedMPH,PrecipitationIn,Events,Conditions,WindDirDegrees,DateUTC
12:15 AM,21.2,17.6,86,29.35,10.0,SSW,8.1,-,N/A,,Overcast,200,2014-01-16 06:15:00
12:35 AM,21.2,17.6,86,29.35,10.0,SSW,8.1,-,N/A,,Overcast,200,2014-01-16 06:35:00
12:55 AM,21.2,17.6,86,29.34,10.0,SSW,10.4,-,N/A,,Overcast,210,2014-01-16 06:55:00
1:15 AM,21.2,17.6,86,29.33,10.0,SSW,9.2,-,N/A,Snow,Light Snow,200,2014-01-16 07:15:00
1:35 AM,21.2,17.6,86,29.32,10.0,SSW,8.1,-,N/A,Snow,Light Snow,210,2014-01-16 07:35:00
1:55 AM,19.4,15.8,86,29.31,10.0,SSW,9.2,-,N/A,,Mostly Cloudy,200,2014-01-16 07:55:00
2:15 AM,19.4,15.8,86,29.31,10.0,SSW,8.1,-,N/A,,Mostly Cloudy,200,2014-01-16 08:15:00
2:35 AM,21.2,17.6,86,29.31,10.0,SSW,8.1,-,N/A,,Overcast,210,2014-01-16 08:35:00
2:55 AM,21.2,17.6,86,29.30,10.0,South,4.6,-,N/A,,Overcast,190,2014-01-16 08:55:00
3:15 AM,23.0,19.4,86,29.30,10.0,SW,5.8,-,N/A,,Overcast,220,2014-01-16 09:15:00
3:35 AM,23.0,19.4,86,29.30,10.0,SSW,4.6,-,N/A,,Overcast,210,2014-01-16 09:35:00
3:55 AM,24.8,21.2,86,29.30,10.0,SW,5.8,-,N/A,,Overcast,220,2014-01-16 09:55:00
4:15 AM,24.8,21.2,86,29.29,10.0,SW,8.1,-,N/A,,Overcast,220,2014-01-16 10:15:00
4:35 AM,24.8,21.2,86,29.29,10.0,SW,6.9,-,N/A,Snow,Light Snow,220,2014-01-16 10:35:00
4:55 AM,26.6,23.0,86,29.29,10.0,SW,5.8,-,N/A,,Overcast,220,2014-01-16 10:55:00
5:15 AM,26.6,23.0,86,29.29,10.0,SSW,5.8,-,N/A,,Overcast,210,2014-01-16 11:15:00
5:35 AM,26.6,23.0,86,29.29,10.0,SW,8.1,-,N/A,,Overcast,230,2014-01-16 11:35:00
5:55 AM,26.6,23.0,86,29.29,10.0,WSW,9.2,-,N/A,,Overcast,240,2014-01-16 11:55:00
6:15 AM,26.6,24.8,93,29.29,10.0,SW,8.1,-,N/A,,Overcast,230,2014-01-16 12:15:00
6:35 AM,28.4,26.6,93,29.29,10.0,WSW,9.2,-,N/A,,Overcast,240,2014-01-16 12:35:00
6:55 AM,28.4,26.6,93,29.29,10.0,WSW,8.1,-,N/A,,Overcast,240,2014-01-16 12:55:00
7:15 AM,28.4,26.6,93,29.29,10.0,West,4.6,-,N/A,Snow,Light Snow,260,2014-01-16 13:15:00
7:35 AM,28.4,28.4,100,29.30,7.0,West,8.1,-,N/A,Snow,Light Snow,270,2014-01-16 13:35:00
7:55 AM,28.4,26.6,93,29.30,4.0,West,9.2,-,N/A,Snow,Light Snow,260,2014-01-16 13:55:00
8:15 AM,30.2,28.4,93,29.30,5.0,West,10.4,-,N/A,Snow,Light Snow,270,2014-01-16 14:15:00
8:35 AM,30.2,28.4,93,29.31,3.0,NNW,18.4,23.0,N/A,Snow,Light Snow,330,2014-01-16 14:35:00
8:55 AM,30.2,26.6,86,29.33,4.0,NW,16.1,-,N/A,Snow,Light Snow,320,2014-01-16 14:55:00
9:15 AM,28.4,23.0,80,29.34,10.0,NW,16.1,21.9,N/A,Snow,Light Snow,310,2014-01-16 15:15:00
9:35 AM,26.6,19.4,74,29.36,5.0,WNW,19.6,28.8,N/A,,Haze,300,2014-01-16 15:35:00
9:55 AM,24.8,15.8,69,29.37,5.0,WNW,16.1,29.9,N/A,,Haze,300,2014-01-16 15:55:00
10:15 AM,23.0,14.0,68,29.39,7.0,NW,17.3,25.3,N/A,,Overcast,310,2014-01-16 16:15:00
10:35 AM,23.0,14.0,68,29.40,7.0,WNW,18.4,28.8,N/A,,Overcast,300,2014-01-16 16:35:00
10:55 AM,21.2,14.0,74,29.41,3.0,WNW,15.0,-,N/A,Snow,Light Snow,300,2014-01-16 16:55:00
11:15 AM,23.0,14.0,68,29.41,10.0,WNW,11.5,18.4,N/A,,Overcast,300,2014-01-16 17:15:00
11:35 AM,21.2,12.2,68,29.41,10.0,West,21.9,-,N/A,Snow,Light Snow,280,2014-01-16 17:35:00
11:55 AM,21.2,10.4,63,29.42,10.0,NW,13.8,25.3,N/A,,Overcast,310,2014-01-16 17:55:00
12:15 PM,19.4,10.4,68,29.43,7.0,NW,23.0,26.5,N/A,,Overcast,320,2014-01-16 18:15:00
12:35 PM,17.6,12.2,79,29.44,4.0,NW,19.6,24.2,N/A,Snow,Light Snow,310,2014-01-16 18:35:00
12:55 PM,17.6,10.4,73,29.45,4.0,NW,19.6,26.5,N/A,Snow,Light Snow,310,2014-01-16 18:55:00
1:15 PM,15.8,8.6,73,29.46,4.0,NW,21.9,27.6,N/A,,Haze,320,2014-01-16 19:15:00
1:35 PM,12.2,3.2,67,29.48,4.0,NW,19.6,26.5,N/A,,Haze,320,2014-01-16 19:35:00
1:55 PM,12.2,3.2,67,29.50,2.5,NNW,16.1,31.1,N/A,,Haze,330,2014-01-16 19:55:00
2:35 PM,10.4,1.4,67,29.53,7.0,NNW,19.6,25.3,N/A,,Overcast,340,2014-01-16 20:35:00
2:55 PM,10.4,1.4,67,29.55,7.0,NW,17.3,24.2,N/A,,Overcast,310,2014-01-16 20:55:00
3:15 PM,8.6,1.4,73,29.57,5.0,NW,19.6,25.3,N/A,,Haze,310,2014-01-16 21:15:00
3:35 PM,8.6,-0.4,67,29.58,7.0,NW,20.7,26.5,N/A,,Overcast,320,2014-01-16 21:35:00
3:55 PM,8.6,-0.4,67,29.60,7.0,WNW,17.3,24.2,N/A,,Overcast,300,2014-01-16 21:55:00
4:15 PM,8.6,-0.4,67,29.61,7.0,NW,19.6,23.0,N/A,,Overcast,320,2014-01-16 22:15:00
4:35 PM,8.6,-0.4,67,29.63,7.0,NW,18.4,25.3,N/A,,Overcast,320,2014-01-16 22:35:00
4:55 PM,8.6,-0.4,67,29.64,10.0,NW,12.7,-,N/A,,Overcast,320,2014-01-16 22:55:00
5:15 PM,8.6,-0.4,67,29.65,10.0,NW,15.0,20.7,N/A,,Overcast,320,2014-01-16 23:15:00
5:35 PM,8.6,-0.4,67,29.66,10.0,WNW,12.7,-,N/A,,Overcast,300,2014-01-16 23:35:00
5:55 PM,8.6,-0.4,67,29.67,10.0,NW,12.7,-,N/A,,Overcast,320,2014-01-16 23:55:00
6:15 PM,8.6,-0.4,67,29.67,10.0,NW,11.5,18.4,N/A,,Overcast,310,2014-01-17 00:15:00
6:35 PM,8.6,-0.4,67,29.68,10.0,WNW,11.5,-,N/A,,Overcast,300,2014-01-17 00:35:00
6:55 PM,8.6,-0.4,67,29.68,10.0,WNW,11.5,18.4,N/A,,Overcast,300,2014-01-17 00:55:00
7:15 PM,8.6,1.4,73,29.69,10.0,WNW,11.5,17.3,N/A,,Overcast,300,2014-01-17 01:15:00
7:35 PM,8.6,1.4,73,29.69,7.0,WNW,11.5,-,N/A,,Overcast,300,2014-01-17 01:35:00
7:55 PM,8.6,1.4,73,29.69,10.0,WNW,11.5,17.3,N/A,,Overcast,300,2014-01-17 01:55:00
8:15 PM,8.6,1.4,73,29.69,7.0,WNW,10.4,18.4,N/A,Snow,Light Snow,300,2014-01-17 02:15:00
8:35 PM,8.6,3.2,79,29.70,4.0,NW,11.5,-,N/A,Snow,Light Snow,310,2014-01-17 02:35:00
8:55 PM,8.6,3.2,79,29.70,5.0,NW,11.5,18.4,N/A,Snow,Light Snow,310,2014-01-17 02:55:00
9:15 PM,8.6,3.2,79,29.71,3.0,NW,12.7,17.3,N/A,Snow,Light Snow,310,2014-01-17 03:15:00
9:35 PM,8.6,3.2,79,29.72,4.0,NW,13.8,18.4,N/A,Snow,Light Snow,320,2014-01-17 03:35:00
9:55 PM,8.6,3.2,79,29.72,5.0,NW,16.1,-,N/A,Snow,Light Snow,320,2014-01-17 03:55:00
10:15 PM,8.6,3.2,79,29.73,5.0,NW,15.0,-,N/A,Snow,Light Snow,320,2014-01-17 04:15:00
10:35 PM,8.6,3.2,79,29.73,4.0,NW,13.8,-,N/A,Snow,Light Snow,320,2014-01-17 04:35:00
10:55 PM,8.6,3.2,79,29.73,4.0,NNW,16.1,23.0,N/A,Snow,Light Snow,330,2014-01-17 04:55:00
11:15 PM,8.6,3.2,79,29.74,3.0,NNW,15.0,-,N/A,Snow,Light Snow,330,2014-01-17 05:15:00
11:35 PM,8.6,3.2,79,29.74,4.0,NNW,19.6,-,N/A,Snow,Light Snow,330,2014-01-17 05:35:00
11:55 PM,8.6,3.2,79,29.74,4.0,NW,13.8,-,N/A,Snow,Light Snow,320,2014-01-17 05:55:00